Home   Weather   Ittoqqortoormiit   Past weeks

Flag for Greenland Past Weather in Ittoqqortoormiit, Greenland — Yesterday and Last 2 Weeks

Now
20 °F

Cold.


Feels Like: 20 °F
Forecast: N/A
Wind: 1 mph from North

Location: Daneborg

Current Time: Apr 30, 2017 at 10:33:47 pm

Latest Report: Apr 30, 2017 at 9:00 pm


Visibility: N/A

Pressure: 30.22 "Hg

Humidity: 79%

Dew Point: 14 °F

Location of IttoqqortoormiitLocation

Past Weather in Ittoqqortoormiit — Graph

°F

Ittoqqortoormiit Temperature Yesterday

Maximum temperature yesterday: 16 °F (at 6:00 pm)
Minimum temperature yesterday: 11 °F (at 5:00 am)
Average temperature yesterday: 14 °F

High & Low Weather Summary for the Past Weeks

 TemperatureHumidityPressure
High24 °F (Apr 30, 4:00 pm)91% (Apr 27, 10:00 pm)30.50 "Hg (Apr 27, 10:00 pm)
Low-10 °F (Apr 18, 5:00 am)48% (Apr 21, 1:00 am)29.57 "Hg (Apr 28, 4:00 am)
Average6 °F72%30.17 "Hg
* Reported Apr 15 9:00 pm — Apr 30 9:00 pm, Ittoqqortoormiit, Weather by CustomWeather, © 2017

Note: Actual official high and low records may vary slightly from our data, if they occured in-between our weather recording intervals... More about our weather records

Advertising

Ittoqqortoormiit Weather History for the Previous 24 Hours

Scroll right to see more
 ConditionsComfort  
Time TempWeatherWind HumidityBarometerVisibility
9:00 pm
Sun, Apr 30
20 °FCold.1 mph79%30.22 "HgN/A
8:00 pm21 °FCold.1 mph77%30.22 "HgN/A
7:00 pm21 °FCold.3 mph77%30.22 "HgN/A
6:00 pm23 °FCold.1 mph72%30.22 "HgN/A
5:00 pm22 °FCold.9 mph78%30.23 "HgN/A
4:00 pm24 °FCold.3 mph64%30.24 "HgN/A
3:00 pm21 °FCold.3 mph71%30.24 "HgN/A
2:00 pm20 °FCold.5 mph71%30.26 "HgN/A
1:00 pm19 °FCold.7 mph73%30.27 "HgN/A
12:00 pm19 °FCold.7 mph74%30.28 "HgN/A
11:00 am19 °FCold.6 mph74%30.27 "HgN/A
10:00 am18 °FCold.2 mph74%30.27 "HgN/A
9:00 am17 °FCold.5 mph75%30.29 "HgN/A
8:00 am17 °FCold.6 mph75%30.29 "HgN/A
7:00 am16 °FCold.7 mph78%30.29 "HgN/A
6:00 am15 °FCold.2 mph76%30.30 "HgN/A
5:00 am15 °FCold.2 mph77%30.31 "HgN/A
4:00 am14 °FCold.2 mph79%30.32 "HgN/A
3:00 am14 °FCold.5 mph80%30.33 "HgN/A
2:00 am14 °FCold.8 mph73%30.34 "HgN/A
1:00 am15 °FCold.7 mph72%30.36 "HgN/A
12:00 am15 °FCold.2 mph69%30.37 "HgN/A
11:00 pm
Sat, Apr 29
15 °FCold.2 mph73%30.37 "HgN/A
10:00 pm15 °FCold.3 mph66%30.37 "HgN/A
Weather by CustomWeather, © 2017

See weather overviewHow to use our weather pages